Tatalina, AK

10:29 PM AKDT on March 28, 2017 (GMT -0800)
Tatalina

Weather History for PATL - May, 2013

Change the Weather History Date:

Thursday, May 23, 2013

  Actual Average Record
Temperature  
Mean Temperature 48 °F -  
Max Temperature 54 °F 57 °F 69 °F (2002)
Min Temperature 41 °F 40 °F 33 °F (2003)
Degree Days  
Heating Degree Days 18    
Moisture  
Dew Point 39 °F    
Average Humidity 75    
Maximum Humidity 93    
Minimum Humidity 49    
Precipitation  
Precipitation 0.00 in - - ()
Sea Level Pressure  
Sea Level Pressure 30.17 in    
Wind  
Wind Speed 4 mph (SSW)    
Max Wind Speed 7 mph    
Max Gust Speed -    
Visibility 10 miles    
Events      
Averages and records for this station are not official NWS values.
T = Trace of Precipitation, MM = Missing Value Source: NWS Daily Summary

Daily Weather History Graph

Daily Weather History Graph

Search for Another Location

Airport or City:

Trip Planner

Search our weather history database for the weather conditions in past years. The results will help you decide how hot, cold, wet, or windy it might be!

Date:

Astronomy

May. 23, 2013 Rise Set
Actual Time 4:58 AM AKDT 11:44 PM AKDT
Civil Twilight 3:04 AM AKDT 1:46 AM AKDT
Nautical Twilight Sun does not rise Sun does not rise
Astronomical Twilight Sun does not rise Sun does not rise
Moon 10:02 PM AKDT (5/23) 4:35 AM AKDT (5/23)
Length of Visible Light 22h 42m
Length of Day
18h 45m
Waxing Gibbous, 97% of the Moon is Illuminated
May 23
Waxing Gibbous
May 24
Full
May 31
Last Quarter
Jun 8
New
Jun 16
First Quarter

Hourly Weather History & Observations

Time (AKDT) Temp. Windchill Dew Point Humidity Pressure Visibility Wind Dir Wind Speed Gust Speed Precip Events Conditions
12:55 AM 44.1 °F 41.5 °F 38.8 °F 82% 30.12 in 10.0 mi SSW 4.6 mph - N/A   Overcast
1:55 AM 43.9 °F 42.3 °F 39.0 °F 83% 30.12 in 10.0 mi South 3.5 mph - N/A   Mostly Cloudy
2:55 AM 43.3 °F - 39.2 °F 85% 30.13 in 10.0 mi SSW 2.3 mph - N/A   Overcast
3:55 AM 43.0 °F - 39.6 °F 88% 30.13 in 10.0 mi South 2.3 mph - N/A   Overcast
4:55 AM 43.0 °F - 39.6 °F 88% 30.14 in 10.0 mi SW 2.3 mph - N/A   Mostly Cloudy
5:55 AM 42.3 °F - 39.4 °F 90% 30.15 in 10.0 mi SSW 2.3 mph - N/A   Overcast
6:55 AM 41.9 °F 40.0 °F 39.6 °F 91% 30.15 in 10.0 mi Variable 3.5 mph - N/A   Overcast
7:55 AM 42.8 °F 40.1 °F 39.2 °F 87% 30.16 in 10.0 mi South 4.6 mph - N/A   Overcast
8:03 AM 42.8 °F 41.1 °F 39.2 °F 87% 30.17 in 10.0 mi Variable 3.5 mph - N/A   Overcast
8:45 AM 42.8 °F 41.1 °F 41.0 °F 93% 30.18 in 10.0 mi SSW 3.5 mph - N/A   Overcast
8:55 AM 42.8 °F 41.1 °F 41.0 °F 93% 30.18 in 10.0 mi SSW 3.5 mph - N/A   Overcast
9:55 AM 42.8 °F 39.3 °F 39.2 °F 87% 30.19 in 10.0 mi SSW 5.8 mph - N/A   Mostly Cloudy
10:32 AM 44.6 °F 40.7 °F 39.2 °F 81% 30.18 in 10.0 mi SSW 6.9 mph - N/A   Mostly Cloudy
10:55 AM 44.6 °F - 39.2 °F 81% 30.19 in 10.0 mi Variable 2.3 mph - N/A   Overcast
11:31 AM 44.6 °F 41.4 °F 39.2 °F 81% 30.19 in 10.0 mi South 5.8 mph - N/A   Overcast
11:55 AM 44.6 °F 40.7 °F 39.2 °F 81% 30.19 in 10.0 mi South 6.9 mph - N/A   Overcast
12:17 PM 44.6 °F 41.4 °F 39.2 °F 81% 30.19 in 10.0 mi Variable 5.8 mph - N/A   Mostly Cloudy
12:55 PM 46.4 °F 45.2 °F 39.2 °F 76% 30.19 in 10.0 mi Variable 3.5 mph - N/A   Mostly Cloudy
1:55 PM 49.5 °F - 37.6 °F 64% 30.19 in 10.0 mi SW 4.6 mph - N/A   Mostly Cloudy
2:55 PM 50.5 °F - 37.4 °F 61% 30.19 in 10.0 mi NE 2.3 mph - N/A   Overcast
3:55 PM 51.3 °F - 36.9 °F 58% 30.18 in 10.0 mi Variable 1.2 mph - N/A   Overcast
4:55 PM 53.2 °F - 36.7 °F 53% 30.18 in 10.0 mi Variable 3.5 mph - N/A   Mostly Cloudy
5:55 PM 53.4 °F - 35.8 °F 51% 30.18 in 10.0 mi SW 4.6 mph - N/A   Overcast
6:55 PM 54.3 °F - 35.4 °F 49% 30.18 in 10.0 mi Variable 3.5 mph - N/A   Overcast
7:55 PM 53.8 °F - 35.6 °F 50% 30.18 in 10.0 mi SW 4.6 mph - N/A   Overcast
8:55 PM 53.2 °F - 36.9 °F 54% 30.18 in 10.0 mi Variable 2.3 mph - N/A   Overcast
9:55 PM 52.3 °F - 38.3 °F 59% 30.18 in 10.0 mi Variable 5.8 mph - N/A   Overcast
10:55 PM 50.7 °F - 38.7 °F 63% 30.19 in 10.0 mi West 2.3 mph - N/A   Mostly Cloudy
11:55 PM 49.6 °F - 38.8 °F 66% 30.20 in 10.0 mi SW 1.2 mph - N/A   Overcast